Weather History for Cartersville, GA

Change the Weather History Date:

Friday, June 28, 2013

  Actual Average Record
Temperature  
Mean Temperature 80 °F 77 °F  
Max Temperature 91 °F 89 °F 100 °F (2012)
Min Temperature 68 °F 65 °F 57 °F (2012)
Cooling Degree Days 15 12  
Month to date cooling degree days 311 270  
Year to date cooling degree days 436 419  
Since 1 June cooling degree days 311 270  
Growing Degree Days 29 (Base 50)    
Moisture  
Dew Point 70 °F    
Average Humidity 75    
Maximum Humidity 100    
Minimum Humidity 50    
Precipitation  
Precipitation 0.00 in 0.16 in 1.88 in (2001)
Month to date precipitation 6.23 3.51  
Year to date precipitation 18.04 25.67  
Sea Level Pressure  
Sea Level Pressure 29.77 in    
Wind  
Wind Speed 1 mph (North)    
Max Wind Speed 14 mph    
Max Gust Speed 18 mph    
Visibility 8 miles    
Events      
T = Trace of Precipitation, MM = Missing Value Source: NWS Daily Summary

Daily Weather History Graph

Daily Weather History Graph

Search for Another Location

Airport:

Trip Planner

Search our weather history database for the weather conditions in past years. The results will help you decide how hot, cold, wet, or windy it might be!

Date:

Astronomy

Jun. 28, 2013 Rise Set
Actual Time 6:30 AM EDT 8:55 PM EDT
Civil Twilight 6:01 AM EDT 9:24 PM EDT
Nautical Twilight 5:25 AM EDT 10:00 PM EDT
Astronomical Twilight 4:45 AM EDT 10:39 PM EDT
Moon 12:07 AM EDT (6/28) 12:20 PM EDT (6/28)
Length of Visible Light 15h 23m
Length of Day
14h 24m
Waning Gibbous, 66% of the Moon is Illuminated
Jun 28
Waning Gibbous
Jun 30
Last Quarter
Jul 8
New
Jul 15
First Quarter
Jul 22
Full

Hourly Weather History & Observations

Time (EDT) Temp. Heat Index Dew Point Humidity Pressure Visibility Wind Dir Wind Speed Gust Speed Precip Events Conditions
12:53 AM 71.1 °F - 71.1 °F 100% 29.84 in 7.0 mi Calm Calm - N/A   Clear
1:53 AM 70.0 °F - 70.0 °F 100% 29.83 in 6.0 mi Calm Calm - N/A   Clear
2:53 AM 69.1 °F - 69.1 °F 100% 29.82 in 6.0 mi Calm Calm - N/A   Clear
3:53 AM 69.1 °F - 69.1 °F 100% 29.82 in 5.0 mi Calm Calm - N/A   Scattered Clouds
4:02 AM 69.8 °F - 69.8 °F 100% 29.85 in 6.0 mi Calm Calm - N/A   Mostly Cloudy
4:10 AM 68.0 °F - 68.0 °F 100% 29.85 in 6.0 mi Calm Calm - N/A   Scattered Clouds
4:53 AM 68.0 °F - 68.0 °F 100% 29.79 in 5.0 mi Calm Calm - N/A   Clear
5:53 AM 68.0 °F - 68.0 °F 100% 29.80 in 5.0 mi Calm Calm - N/A   Clear
6:53 AM 69.1 °F - 68.0 °F 96% 29.82 in 6.0 mi Calm Calm - N/A   Clear
7:53 AM 73.9 °F - 73.0 °F 97% 29.82 in 7.0 mi Calm Calm - N/A   Clear
8:53 AM 78.1 °F - 75.0 °F 90% 29.83 in 7.0 mi Calm Calm - N/A   Clear
9:53 AM 81.0 °F 86.7 °F 75.0 °F 82% 29.81 in 10.0 mi Calm Calm - N/A   Clear
10:53 AM 86.0 °F 93.0 °F 73.0 °F 65% 29.79 in 10.0 mi Calm Calm - N/A   Clear
11:53 AM 87.1 °F 94.5 °F 73.0 °F 63% 29.78 in 10.0 mi Calm Calm - N/A   Clear
12:53 PM 89.1 °F 100.2 °F 75.9 °F 65% 29.78 in 10.0 mi Variable 4.6 mph - N/A   Partly Cloudy
1:53 PM 88.0 °F 97.5 °F 75.0 °F 65% 29.74 in 10.0 mi Calm Calm - N/A   Mostly Cloudy
2:53 PM 90.0 °F 99.0 °F 73.9 °F 59% 29.71 in 10.0 mi Calm Calm - N/A   Scattered Clouds
3:53 PM 89.1 °F 94.1 °F 70.0 °F 53% 29.70 in 10.0 mi Variable 5.8 mph - N/A   Partly Cloudy
4:53 PM 90.0 °F 93.6 °F 68.0 °F 48% 29.68 in 10.0 mi Variable 4.6 mph - N/A   Partly Cloudy
5:53 PM 87.1 °F 89.9 °F 66.9 °F 51% 29.66 in 10.0 mi Variable 5.8 mph - N/A   Clear
6:53 PM 86.0 °F 88.8 °F 66.9 °F 53% 29.67 in 10.0 mi Calm Calm - N/A   Clear
7:53 PM 84.0 °F 86.5 °F 66.9 °F 56% 29.69 in 10.0 mi Calm Calm - N/A   Clear
8:53 PM 81.0 °F 84.1 °F 69.1 °F 67% 29.70 in 10.0 mi Calm Calm - N/A   Partly Cloudy
9:53 PM 75.9 °F - 70.0 °F 82% 29.71 in 10.0 mi Calm Calm - N/A   Partly Cloudy
10:53 PM 77.0 °F - 63.0 °F 62% 29.73 in 10.0 mi Variable 5.8 mph - N/A   Overcast
11:53 PM 71.1 °F - 66.9 °F 87% 29.72 in 10.0 mi Calm Calm - N/A   Mostly Cloudy